De Queen, AR

6:55 PM CDT on October 21, 2017 (GMT -0500)
Helms Sevier County

Weather History for KDEQ - October, 2014

Change the Weather History Date:

Thursday, October 23, 2014

  Actual Average Record
Temperature  
Mean Temperature 61 °F 61 °F  
Max Temperature 69 °F 74 °F 93 °F (1939)
Min Temperature 52 °F 48 °F 28 °F (1937)
Degree Days  
Heating Degree Days 4 5  
Month to date heating degree days 47 73  
Since 1 July heating degree days 48 82  
Cooling Degree Days 0 2  
Month to date cooling degree days 70 60  
Year to date cooling degree days 1702 1925  
Growing Degree Days 11 (Base 50)    
Moisture  
Dew Point 52 °F    
Average Humidity 76    
Maximum Humidity 100    
Minimum Humidity 52    
Precipitation  
Precipitation 0.00 in 0.16 in 2.14 in (2015)
Month to date precipitation 2.62 3.45  
Year to date precipitation 36.06 38.65  
Snow  
Snow 0.00 in - - ()
Month to date snowfall 0.0  
Since 1 July snowfall 0.0  
Since 1 September snowfall 0.0  
Snow Depth 0.00 in    
Sea Level Pressure  
Sea Level Pressure 30.13 in    
Wind  
Wind Speed 2 mph (East)    
Max Wind Speed 8 mph    
Max Gust Speed 11 mph    
Visibility 8 miles    
Events      
T = Trace of Precipitation, MM = Missing Value Source: NWS Daily Summary

Daily Weather History Graph

Daily Weather History Graph

Search for Another Location

Airport or City:

Trip Planner

Search our weather history database for the weather conditions in past years. The results will help you decide how hot, cold, wet, or windy it might be!

Date:

Astronomy

Oct. 23, 2014 Rise Set
Actual Time 7:29 AM CDT 6:33 PM CDT
Civil Twilight 7:03 AM CDT 6:59 PM CDT
Nautical Twilight 6:34 AM CDT 7:28 PM CDT
Astronomical Twilight 6:05 AM CDT 7:57 PM CDT
Moon 7:10 AM CDT (10/23) 6:36 PM CDT (10/23)
Length of Visible Light 11h 55m
Length of Day
11h 04m
Waning Crescent, 0% of the Moon is Illuminated
Oct 23
Waning Crescent
Oct 23
New
Oct 30
First Quarter
Nov 6
Full
Nov 14
Last Quarter

Hourly Weather History & Observations

Time (CDT) Temp. Dew Point Humidity Pressure Visibility Wind Dir Wind Speed Gust Speed Precip Events Conditions
12:53 AM 55.0 °F 53.1 °F 93% 30.13 in 9.0 mi ENE 4.6 mph - N/A   Clear
1:53 AM 55.9 °F 52.0 °F 87% 30.12 in 10.0 mi ENE 5.8 mph - N/A   Clear
2:53 AM 55.0 °F 51.1 °F 86% 30.14 in 10.0 mi Calm Calm - N/A   Clear
3:53 AM 54.0 °F 52.0 °F 93% 30.13 in 9.0 mi Calm Calm - N/A   Clear
4:53 AM 54.0 °F 51.1 °F 90% 30.13 in 10.0 mi Calm Calm - N/A   Clear
5:53 AM 53.1 °F 51.1 °F 93% 30.14 in 9.0 mi Calm Calm - N/A   Clear
6:53 AM 53.1 °F 51.1 °F 93% 30.15 in 9.0 mi Calm Calm - N/A   Clear
7:53 AM 53.1 °F 50.0 °F 89% 30.16 in 9.0 mi East 4.6 mph - N/A   Clear
8:53 AM 54.0 °F 51.1 °F 90% 30.18 in 8.0 mi Calm Calm - N/A   Clear
9:53 AM 57.9 °F 48.9 °F 72% 30.19 in 10.0 mi East 3.5 mph - N/A   Clear
10:53 AM 60.1 °F 50.0 °F 69% 30.20 in 10.0 mi NE 3.5 mph - N/A   Partly Cloudy
11:53 AM 64.0 °F 50.0 °F 60% 30.17 in 10.0 mi East 6.9 mph - N/A   Clear
12:53 PM 66.9 °F 48.0 °F 51% 30.15 in 10.0 mi ENE 4.6 mph - N/A   Clear
1:53 PM 66.9 °F 51.1 °F 57% 30.14 in 10.0 mi Calm Calm - N/A   Mostly Cloudy
2:53 PM 68.0 °F 52.0 °F 56% 30.11 in 10.0 mi WSW 4.6 mph - N/A   Clear
3:53 PM 69.1 °F 52.0 °F 54% 30.10 in 9.0 mi Variable 3.5 mph - N/A   Clear
4:53 PM 68.0 °F 52.0 °F 56% 30.09 in 10.0 mi SW 4.6 mph - N/A   Clear
5:53 PM 66.0 °F 53.1 °F 63% 30.09 in 10.0 mi SSE 3.5 mph - N/A   Clear
6:53 PM 59.0 °F 55.0 °F 87% 30.09 in 10.0 mi Calm Calm - N/A   Clear
7:53 PM 57.0 °F 55.0 °F 93% 30.11 in 10.0 mi Calm Calm - N/A   Clear
8:53 PM 55.9 °F 55.0 °F 97% 30.11 in 9.0 mi Calm Calm - N/A   Mostly Cloudy
9:53 PM 55.0 °F 54.0 °F 96% 30.12 in 7.0 mi Calm Calm - N/A   Clear
10:06 PM 54.0 °F 54.0 °F 100% 30.13 in 1.8 mi Calm Calm - N/A   Clear
10:28 PM 54.0 °F 54.0 °F 100% 30.13 in 3.0 mi Calm Calm - N/A   Clear
10:53 PM 53.1 °F 53.1 °F 100% 30.13 in 3.0 mi Calm Calm - N/A   Clear
10:55 PM 53.1 °F 52.0 °F 96% 30.13 in 1.5 mi Calm Calm - N/A   Clear
11:34 PM 53.1 °F 53.1 °F 100% 30.14 in 3.0 mi Calm Calm - N/A   Clear
11:53 PM 53.1 °F 52.0 °F 96% 30.13 in 7.0 mi Calm Calm - N/A   Clear